EA1EE-12 Weather Reports


Display with metric or nautical units.
time (UTC)temp
F
wind
direction
speed
MPH
gust
MPH
rain 1hr
in
rain 24hr
in
rain mn
in
humidity
%
barometer
mb
20260508085403 51 211 3.0 7.0 0.00 0.00 0.00 94 1008.9
20260508084503 51 210 4.0 9.0 0.00 0.00 0.00 94 1009.0
20260508083603 51 213 4.0 10.0 0.00 0.00 0.00 95 1008.9
20260508082703 51 211 4.0 9.0 0.00 0.00 0.00 95 1008.8
20260508081804 50 211 3.0 7.0 0.00 0.00 0.00 97 1008.8
20260508080903 50 211 4.0 8.0 0.00 0.00 0.00 97 1008.8
20260508080003 50 209 4.0 7.0 0.00 0.00 0.00 97 1009.0
20260508075403 50 213 4.0 9.0 0.00 0.00 0.00 98 1008.9
20260508074503 50 210 4.0 9.0 0.00 0.00 0.00 98 1008.8
20260508073603 50 212 3.0 8.0 0.00 0.00 0.00 98 1008.7
20260508072724 49 209 3.0 7.0 0.00 0.00 0.00 98 1008.6
20260507222703 53 214 2.0 5.0 0.00 0.00 0.00 92 1010.4
20260507221803 53 213 2.0 4.0 0.00 0.00 0.00 90 1010.6
20260507220903 53 209 1.0 3.0 0.00 0.00 0.00 90 1010.6
20260507220003 53 203 2.0 6.0 0.00 0.00 0.00 89 1010.8
20260507215403 53 207 2.0 7.0 0.00 0.00 0.00 89 1010.7
20260507214524 53 196 1.0 4.0 0.00 0.00 0.00 90 1010.8
20260507213603 53 158 0.0 1.0 0.00 0.00 0.00 91 1010.6
20260507212703 53 151 0.0 1.0 0.00 0.00 0.00 91 1010.7
20260507211803 53 132 0.0 1.0 0.00 0.00 0.00 90 1010.6
20260507210903 53 146 0.0 2.0 0.00 0.00 0.00 91 1010.6
20260507210003 53 154 0.0 1.0 0.00 0.00 0.00 91 1010.6
20260507205424 52 146 0.0 1.0 0.00 0.00 0.00 91 1010.5
20260507204504 52 146 0.0 1.0 0.00 0.00 0.00 91 1010.4
20260507203603 52 146 0.0 1.0 0.00 0.00 0.00 92 1010.1
20260507202703 52 145 0.0 1.0 0.00 0.00 0.00 92 1010.1
20260507201805 52 157 0.0 1.0 0.00 0.00 0.00 92 1010.0